| time (UTC) | temp F | wind direction | speed MPH | gust MPH | rain 1hr in | rain 24hr in | rain mn in | humidity % | barometer mb |
| 20260509002544 | 73 | 153 | 2.0 | 7.0 | 0.00 | 0.00 | 0.00 | 40 | 1019.2 |
| 20260509002047 | 74 | 175 | 2.0 | 7.0 | 0.00 | 0.00 | 0.00 | 39 | 1019.1 |
| 20260509001551 | 74 | 0 | 0.0 | 10.0 | 0.00 | 0.00 | 0.00 | 42 | 1019.2 |
| 20260509001048 | 74 | 0 | 2.0 | 10.0 | 0.00 | 0.00 | 0.00 | 39 | 1019.1 |
| 20260509000547 | 74 | 144 | 1.0 | 8.0 | 0.00 | 0.00 | 0.00 | 39 | 1019.2 |
| 20260509000051 | 74 | 148 | 2.0 | 10.0 | 0.00 | 0.00 | 0.00 | 37 | 1019.3 |
| 20260508235547 | 74 | 271 | 3.0 | 10.0 | 0.00 | 0.00 | 0.00 | 41 | 1019.4 |
| 20260508235045 | 74 | 112 | 1.0 | 7.0 | 0.00 | 0.00 | 0.00 | 41 | 1019.4 |
| 20260508234555 | 75 | 150 | 3.0 | 10.0 | 0.00 | 0.00 | 0.00 | 41 | 1019.4 |
| 20260508234045 | 75 | 165 | 2.0 | 10.0 | 0.00 | 0.00 | 0.00 | 39 | 1019.4 |
| 20260508233544 | 75 | 234 | 1.0 | 7.0 | 0.00 | 0.00 | 0.00 | 36 | 1019.3 |
| 20260508233102 | 75 | 109 | 2.0 | 11.0 | 0.00 | 0.00 | 0.00 | 37 | 1019.3 |
| 20260508232546 | 75 | 149 | 3.0 | 11.0 | 0.00 | 0.00 | 0.00 | 41 | 1019.4 |
| 20260508232044 | 75 | 180 | 3.0 | 9.0 | 0.00 | 0.00 | 0.00 | 40 | 1019.5 |
| 20260508231626 | 75 | 231 | 4.0 | 9.0 | 0.00 | 0.00 | 0.00 | 39 | 1019.6 |
| 20260508231048 | 76 | 186 | 2.0 | 7.0 | 0.00 | 0.00 | 0.00 | 41 | 1019.6 |
| 20260508230546 | 76 | 329 | 0.0 | 14.0 | 0.00 | 0.00 | 0.00 | 41 | 1019.6 |
| 20260508230059 | 76 | 254 | 4.0 | 14.0 | 0.00 | 0.00 | 0.00 | 40 | 1019.6 |
| 20260508225547 | 76 | 189 | 3.0 | 11.0 | 0.00 | 0.00 | 0.00 | 40 | 1019.7 |
| 20260508225047 | 76 | 110 | 2.0 | 11.0 | 0.00 | 0.00 | 0.00 | 43 | 1019.6 |
| 20260508224550 | 76 | 138 | 2.0 | 11.0 | 0.00 | 0.00 | 0.00 | 41 | 1019.7 |
| 20260508224047 | 76 | 132 | 3.0 | 10.0 | 0.00 | 0.00 | 0.00 | 42 | 1019.9 |
| 20260508223547 | 76 | 129 | 1.0 | 7.0 | 0.00 | 0.00 | 0.00 | 41 | 1019.9 |
| 20260508223052 | 76 | 202 | 3.0 | 10.0 | 0.00 | 0.00 | 0.00 | 39 | 1020.0 |
| 20260508222547 | 77 | 61 | 3.0 | 10.0 | 0.00 | 0.00 | 0.00 | 38 | 1020.0 |
| 20260508222048 | 76 | 308 | 4.0 | 10.0 | 0.00 | 0.00 | 0.00 | 38 | 1020.0 |
| 20260508221551 | 77 | 259 | 2.0 | 8.0 | 0.00 | 0.00 | 0.00 | 38 | 1020.1 |
| 20260508221048 | 77 | 155 | 2.0 | 9.0 | 0.00 | 0.00 | 0.00 | 40 | 1020.1 |
| 20260508220548 | 77 | 61 | 3.0 | 13.0 | 0.00 | 0.00 | 0.00 | 36 | 1020.0 |
| 20260508220057 | 76 | 140 | 3.0 | 13.0 | 0.00 | 0.00 | 0.00 | 39 | 1020.1 |
| 20260508215548 | 77 | 0 | 5.0 | 12.0 | 0.00 | 0.00 | 0.00 | 36 | 1020.2 |
| 20260508215048 | 77 | 99 | 1.0 | 10.0 | 0.00 | 0.00 | 0.00 | 37 | 1020.0 |
| 20260508214626 | 77 | 182 | 3.0 | 9.0 | 0.00 | 0.00 | 0.00 | 38 | 1020.3 |
| 20260508214050 | 78 | 219 | 3.0 | 9.0 | 0.00 | 0.00 | 0.00 | 37 | 1020.2 |
| 20260508213549 | 78 | 174 | 1.0 | 9.0 | 0.00 | 0.00 | 0.00 | 39 | 1020.3 |
| 20260508213052 | 77 | 131 | 2.0 | 10.0 | 0.00 | 0.00 | 0.00 | 41 | 1020.3 |
| 20260508212548 | 77 | 150 | 3.0 | 10.0 | 0.00 | 0.00 | 0.00 | 38 | 1020.3 |
| 20260508212048 | 77 | 143 | 1.0 | 6.0 | 0.00 | 0.00 | 0.00 | 40 | 1020.3 |
| 20260508211550 | 77 | 149 | 2.0 | 10.0 | 0.00 | 0.00 | 0.00 | 39 | 1020.3 |
| 20260508211048 | 77 | 122 | 3.0 | 10.0 | 0.00 | 0.00 | 0.00 | 38 | 1020.3 |
| 20260508210548 | 77 | 157 | 2.0 | 13.0 | 0.00 | 0.00 | 0.00 | 40 | 1020.3 |
| 20260508210055 | 77 | 184 | 4.0 | 13.0 | 0.00 | 0.00 | 0.00 | 38 | 1020.4 |
| 20260508205548 | 77 | 163 | 3.0 | 7.0 | 0.00 | 0.00 | 0.00 | 40 | 1020.3 |
| 20260508205048 | 77 | 147 | 1.0 | 10.0 | 0.00 | 0.00 | 0.00 | 42 | 1020.3 |
| 20260508204556 | 77 | 175 | 4.0 | 10.0 | 0.00 | 0.00 | 0.00 | 39 | 1020.4 |
| 20260508204047 | 77 | 130 | 2.0 | 7.0 | 0.00 | 0.00 | 0.00 | 39 | 1020.3 |
| 20260508203547 | 77 | 43 | 2.0 | 9.0 | 0.00 | 0.00 | 0.00 | 38 | 1020.2 |
| 20260508203110 | 77 | 282 | 2.0 | 9.0 | 0.00 | 0.00 | 0.00 | 38 | 1020.3 |
| 20260508202547 | 77 | 209 | 3.0 | 10.0 | 0.00 | 0.00 | 0.00 | 36 | 1020.3 |
| 20260508202047 | 76 | 155 | 3.0 | 12.0 | 0.00 | 0.00 | 0.00 | 38 | 1020.3 |
| 20260508201550 | 76 | 153 | 4.0 | 12.0 | 0.00 | 0.00 | 0.00 | 36 | 1020.4 |
| 20260508201048 | 77 | 134 | 3.0 | 7.0 | 0.00 | 0.00 | 0.00 | 36 | 1020.3 |
| 20260508200548 | 76 | 207 | 2.0 | 11.0 | 0.00 | 0.00 | 0.00 | 39 | 1020.2 |
| 20260508200049 | 76 | 0 | 2.0 | 11.0 | 0.00 | 0.00 | 0.00 | 38 | 1020.4 |
| 20260508195547 | 76 | 204 | 4.0 | 12.0 | 0.00 | 0.00 | 0.00 | 37 | 1020.4 |
| 20260508195047 | 76 | 275 | 4.0 | 12.0 | 0.00 | 0.00 | 0.00 | 36 | 1020.4 |
| 20260508194555 | 77 | 267 | 3.0 | 7.0 | 0.00 | 0.00 | 0.00 | 38 | 1020.6 |
| 20260508194046 | 77 | 126 | 2.0 | 7.0 | 0.00 | 0.00 | 0.00 | 36 | 1020.5 |
| 20260508193547 | 76 | 92 | 2.0 | 8.0 | 0.00 | 0.00 | 0.00 | 36 | 1020.6 |
| 20260508193119 | 76 | 95 | 1.0 | 9.0 | 0.00 | 0.00 | 0.00 | 38 | 1020.7 |
| 20260508192547 | 76 | 134 | 3.0 | 9.0 | 0.00 | 0.00 | 0.00 | 40 | 1020.7 |
| 20260508192049 | 76 | 190 | 2.0 | 10.0 | 0.00 | 0.00 | 0.00 | 40 | 1020.8 |
| 20260508191602 | 76 | 148 | 1.0 | 10.0 | 0.00 | 0.00 | 0.00 | 41 | 1020.8 |
| 20260508191048 | 76 | 170 | 2.0 | 11.0 | 0.00 | 0.00 | 0.00 | 44 | 1020.9 |
| 20260508190548 | 76 | 157 | 3.0 | 11.0 | 0.00 | 0.00 | 0.00 | 43 | 1020.8 |
| 20260508190056 | 76 | 119 | 1.0 | 11.0 | 0.00 | 0.00 | 0.00 | 45 | 1020.8 |
| 20260508185548 | 75 | 132 | 4.0 | 11.0 | 0.00 | 0.00 | 0.00 | 43 | 1020.8 |
| 20260508185047 | 75 | 114 | 4.0 | 9.0 | 0.00 | 0.00 | 0.00 | 46 | 1020.8 |
| 20260508184553 | 76 | 156 | 3.0 | 8.0 | 0.00 | 0.00 | 0.00 | 48 | 1020.8 |
| 20260508184047 | 76 | 193 | 2.0 | 9.0 | 0.00 | 0.00 | 0.00 | 47 | 1020.9 |
| 20260508183547 | 76 | 121 | 3.0 | 9.0 | 0.00 | 0.00 | 0.00 | 45 | 1020.8 |
| 20260508183052 | 76 | 179 | 2.0 | 7.0 | 0.00 | 0.00 | 0.00 | 45 | 1020.8 |
| 20260508182549 | 75 | 123 | 2.0 | 7.0 | 0.00 | 0.00 | 0.00 | 44 | 1020.8 |
| 20260508182046 | 75 | 144 | 2.0 | 7.0 | 0.00 | 0.00 | 0.00 | 46 | 1020.8 |
| 20260508181556 | 75 | 144 | 1.0 | 7.0 | 0.00 | 0.00 | 0.00 | 48 | 1020.8 |
| 20260508181044 | 75 | 148 | 1.0 | 9.0 | 0.00 | 0.00 | 0.00 | 47 | 1020.8 |
| 20260508180546 | 75 | 161 | 2.0 | 9.0 | 0.00 | 0.00 | 0.00 | 45 | 1020.8 |
| 20260508180105 | 75 | 188 | 3.0 | 10.0 | 0.00 | 0.00 | 0.00 | 46 | 1020.8 |
| 20260508175548 | 75 | 160 | 2.0 | 10.0 | 0.00 | 0.00 | 0.00 | 46 | 1020.8 |
| 20260508175049 | 75 | 152 | 1.0 | 7.0 | 0.00 | 0.00 | 0.00 | 46 | 1020.7 |
| 20260508174611 | 75 | 152 | 2.0 | 7.0 | 0.00 | 0.00 | 0.00 | 46 | 1020.8 |
| 20260508174048 | 75 | 0 | 2.0 | 7.0 | 0.00 | 0.00 | 0.00 | 44 | 1020.7 |
| 20260508173547 | 74 | 267 | 2.0 | 7.0 | 0.00 | 0.00 | 0.00 | 44 | 1020.6 |
| 20260508173053 | 74 | 163 | 2.0 | 6.0 | 0.00 | 0.00 | 0.00 | 45 | 1020.7 |
| 20260508172548 | 74 | 170 | 2.0 | 8.0 | 0.00 | 0.00 | 0.00 | 46 | 1020.7 |
| 20260508172048 | 74 | 144 | 2.0 | 8.0 | 0.00 | 0.00 | 0.00 | 43 | 1020.7 |
| 20260508171552 | 74 | 169 | 1.0 | 8.0 | 0.00 | 0.00 | 0.00 | 43 | 1020.7 |
| 20260508171051 | 74 | 196 | 2.0 | 8.0 | 0.00 | 0.00 | 0.00 | 42 | 1020.7 |
| 20260508170549 | 73 | 0 | 1.0 | 6.0 | 0.00 | 0.00 | 0.00 | 42 | 1020.6 |
| 20260508170054 | 73 | 145 | 2.0 | 6.0 | 0.00 | 0.00 | 0.00 | 43 | 1020.6 |
| 20260508165547 | 73 | 176 | 1.0 | 6.0 | 0.00 | 0.01 | 0.00 | 46 | 1020.6 |
| 20260508165049 | 73 | 0 | 1.0 | 6.0 | 0.00 | 0.01 | 0.00 | 44 | 1020.6 |
| 20260508164558 | 72 | 125 | 1.0 | 5.0 | 0.00 | 0.01 | 0.00 | 46 | 1020.7 |
| 20260508164047 | 72 | 336 | 0.0 | 4.0 | 0.00 | 0.01 | 0.00 | 47 | 1020.6 |
| 20260508163549 | 71 | 0 | 0.0 | 4.0 | 0.00 | 0.01 | 0.00 | 50 | 1020.6 |
| 20260508163051 | 70 | 0 | 0.0 | 4.0 | 0.00 | 0.01 | 0.00 | 51 | 1020.6 |
| 20260508162547 | 70 | 144 | 1.0 | 4.0 | 0.00 | 0.01 | 0.00 | 51 | 1020.5 |
| 20260508162049 | 70 | 178 | 1.0 | 5.0 | 0.00 | 0.01 | 0.00 | 52 | 1020.6 |
| 20260508161556 | 69 | 202 | 0.0 | 5.0 | 0.00 | 0.01 | 0.00 | 53 | 1020.5 |
| 20260508161048 | 68 | 0 | 2.0 | 5.0 | 0.00 | 0.01 | 0.00 | 52 | 1020.5 |
| 20260508160633 | 67 | 0 | 0.0 | 3.0 | 0.00 | 0.01 | 0.00 | 53 | 1020.5 |
| 20260508160053 | 66 | 200 | 0.0 | 3.0 | 0.00 | 0.01 | 0.00 | 56 | 1020.5 |
| 20260508155549 | 65 | 0 | 0.0 | 4.0 | 0.00 | 0.01 | 0.00 | 56 | 1020.5 |
| 20260508155047 | 64 | 56 | 1.0 | 4.0 | 0.00 | 0.01 | 0.00 | 56 | 1020.4 |
| 20260508154553 | 63 | 278 | 0.0 | 2.0 | 0.00 | 0.01 | 0.00 | 61 | 1020.5 |
| 20260508154047 | 62 | 0 | 0.0 | 3.0 | 0.00 | 0.01 | 0.00 | 63 | 1020.5 |
| 20260508153548 | 61 | 136 | 0.0 | 3.0 | 0.00 | 0.01 | 0.00 | 60 | 1020.5 |
| 20260508153055 | 60 | 202 | 0.0 | 5.0 | 0.00 | 0.01 | 0.00 | 65 | 1020.5 |
| 20260508152546 | 59 | 37 | 0.0 | 5.0 | 0.00 | 0.01 | 0.00 | 63 | 1020.5 |
| 20260508152048 | 59 | 51 | 1.0 | 4.0 | 0.00 | 0.01 | 0.00 | 60 | 1020.5 |
| 20260508151553 | 58 | 48 | 1.0 | 6.0 | 0.00 | 0.01 | 0.00 | 64 | 1020.5 |
| 20260508151046 | 57 | 41 | 1.0 | 6.0 | 0.00 | 0.01 | 0.00 | 64 | 1020.5 |
| 20260508150546 | 57 | 37 | 1.0 | 4.0 | 0.00 | 0.01 | 0.00 | 62 | 1020.5 |
| 20260508150059 | 56 | 40 | 1.0 | 4.0 | 0.00 | 0.01 | 0.00 | 62 | 1020.5 |
| 20260508145544 | 56 | 40 | 1.0 | 4.0 | 0.00 | 0.01 | 0.00 | 65 | 1020.4 |
| 20260508145048 | 55 | 34 | 1.0 | 3.0 | 0.00 | 0.01 | 0.00 | 65 | 1020.4 |
| 20260508144556 | 54 | 45 | 0.0 | 2.0 | 0.00 | 0.01 | 0.00 | 64 | 1020.3 |
| 20260508144047 | 54 | 45 | 0.0 | 2.0 | 0.00 | 0.01 | 0.00 | 65 | 1020.2 |
| 20260508143545 | 53 | 46 | 0.0 | 2.0 | 0.00 | 0.01 | 0.00 | 66 | 1020.2 |
| 20260508143104 | 53 | 46 | 1.0 | 2.0 | 0.00 | 0.01 | 0.00 | 66 | 1020.2 |
| 20260508142545 | 52 | 0 | 1.0 | 2.0 | 0.00 | 0.01 | 0.00 | 68 | 1020.3 |
| 20260508142048 | 52 | 30 | 0.0 | 2.0 | 0.00 | 0.01 | 0.00 | 70 | 1020.2 |
| 20260508141554 | 52 | 30 | 0.0 | 3.0 | 0.00 | 0.01 | 0.00 | 71 | 1020.2 |
| 20260508141046 | 51 | 0 | 0.0 | 3.0 | 0.00 | 0.01 | 0.00 | 71 | 1020.2 |
| 20260508140544 | 51 | 30 | 0.0 | 2.0 | 0.00 | 0.01 | 0.00 | 70 | 1020.2 |
| 20260508140104 | 51 | 0 | 0.0 | 2.0 | 0.00 | 0.01 | 0.00 | 73 | 1020.3 |
| 20260508135545 | 51 | 0 | 0.0 | 2.0 | 0.00 | 0.01 | 0.00 | 73 | 1020.2 |
| 20260508135045 | 51 | 0 | 0.0 | 1.0 | 0.00 | 0.01 | 0.00 | 73 | 1020.2 |
| 20260508134602 | 51 | 0 | 0.0 | 1.0 | 0.00 | 0.01 | 0.00 | 73 | 1020.1 |
| 20260508134045 | 50 | 0 | 0.0 | 1.0 | 0.00 | 0.01 | 0.00 | 72 | 1020.1 |
| 20260508133545 | 50 | 0 | 0.0 | 0.0 | 0.00 | 0.01 | 0.00 | 72 | 1020.1 |
| 20260508133051 | 50 | 0 | 0.0 | 0.0 | 0.00 | 0.01 | 0.00 | 72 | 1020.1 |
| 20260508132549 | 50 | 0 | 0.0 | 0.0 | 0.00 | 0.01 | 0.00 | 72 | 1020.0 |
| 20260508132045 | 50 | 0 | 0.0 | 0.0 | 0.00 | 0.01 | 0.00 | 71 | 1020.0 |
| 20260508131555 | 50 | 0 | 0.0 | 0.0 | 0.00 | 0.01 | 0.00 | 70 | 1020.0 |
| 20260508131048 | 50 | 0 | 0.0 | 0.0 | 0.00 | 0.01 | 0.00 | 70 | 1020.0 |
| 20260508130547 | 50 | 0 | 0.0 | 0.0 | 0.00 | 0.01 | 0.00 | 72 | 1019.9 |
| 20260508130053 | 50 | 0 | 0.0 | 0.0 | 0.00 | 0.01 | 0.00 | 71 | 1019.8 |
| 20260508125548 | 50 | 0 | 0.0 | 0.0 | 0.00 | 0.01 | 0.00 | 69 | 1019.8 |
| 20260508125045 | 50 | 0 | 0.0 | 0.0 | 0.00 | 0.01 | 0.00 | 67 | 1019.8 |
| 20260508124558 | 50 | 0 | 0.0 | 0.0 | 0.00 | 0.01 | 0.00 | 68 | 1019.8 |
| 20260508124048 | 50 | 0 | 0.0 | 0.0 | 0.00 | 0.01 | 0.00 | 68 | 1019.7 |
| 20260508123545 | 50 | 0 | 0.0 | 0.0 | 0.00 | 0.01 | 0.00 | 70 | 1019.7 |
| 20260508123055 | 50 | 0 | 0.0 | 1.0 | 0.00 | 0.01 | 0.00 | 69 | 1019.7 |
| 20260508122545 | 50 | 0 | 0.0 | 2.0 | 0.00 | 0.01 | 0.00 | 70 | 1019.7 |
| 20260508122045 | 50 | 0 | 0.0 | 2.0 | 0.00 | 0.01 | 0.00 | 71 | 1019.7 |
| 20260508121557 | 50 | 12 | 0.0 | 1.0 | 0.00 | 0.01 | 0.00 | 71 | 1019.6 |
| 20260508121044 | 50 | 0 | 0.0 | 0.0 | 0.00 | 0.01 | 0.00 | 69 | 1019.6 |
| 20260508120545 | 50 | 0 | 0.0 | 0.0 | 0.00 | 0.01 | 0.00 | 72 | 1019.6 |
| 20260508120056 | 50 | 0 | 0.0 | 0.0 | 0.00 | 0.01 | 0.00 | 70 | 1019.6 |
| 20260508115546 | 50 | 0 | 0.0 | 0.0 | 0.00 | 0.01 | 0.00 | 73 | 1019.5 |
| 20260508115045 | 51 | 0 | 0.0 | 0.0 | 0.00 | 0.01 | 0.00 | 72 | 1019.5 |
| 20260508114604 | 51 | 0 | 0.0 | 0.0 | 0.00 | 0.01 | 0.00 | 72 | 1019.5 |
| 20260508114048 | 51 | 0 | 0.0 | 0.0 | 0.00 | 0.01 | 0.00 | 72 | 1019.6 |
| 20260508113545 | 51 | 0 | 0.0 | 0.0 | 0.00 | 0.01 | 0.00 | 72 | 1019.6 |
| 20260508113103 | 51 | 0 | 0.0 | 0.0 | 0.00 | 0.01 | 0.00 | 72 | 1019.6 |
| 20260508112547 | 51 | 0 | 0.0 | 0.0 | 0.00 | 0.01 | 0.00 | 73 | 1019.6 |
| 20260508112048 | 51 | 0 | 0.0 | 0.0 | 0.00 | 0.01 | 0.00 | 71 | 1019.6 |
| 20260508111600 | 51 | 0 | 0.0 | 0.0 | 0.00 | 0.01 | 0.00 | 71 | 1019.6 |
| 20260508111045 | 51 | 0 | 0.0 | 0.0 | 0.00 | 0.01 | 0.00 | 71 | 1019.6 |
| 20260508110546 | 51 | 0 | 0.0 | 0.0 | 0.00 | 0.01 | 0.00 | 71 | 1019.6 |
| 20260508110051 | 51 | 0 | 0.0 | 0.0 | 0.00 | 0.01 | 0.00 | 71 | 1019.6 |
| 20260508105548 | 52 | 0 | 0.0 | 0.0 | 0.00 | 0.01 | 0.00 | 72 | 1019.6 |
| 20260508105046 | 52 | 0 | 0.0 | 0.0 | 0.00 | 0.01 | 0.00 | 71 | 1019.6 |
| 20260508104600 | 52 | 0 | 0.0 | 0.0 | 0.00 | 0.01 | 0.00 | 71 | 1019.6 |
| 20260508104045 | 52 | 0 | 0.0 | 1.0 | 0.00 | 0.01 | 0.00 | 72 | 1019.6 |
| 20260508103549 | 52 | 0 | 0.0 | 1.0 | 0.00 | 0.01 | 0.00 | 73 | 1019.6 |
| 20260508103049 | 52 | 0 | 0.0 | 1.0 | 0.00 | 0.01 | 0.00 | 74 | 1019.6 |
| 20260508102546 | 52 | 0 | 0.0 | 0.0 | 0.00 | 0.01 | 0.00 | 72 | 1019.6 |
| 20260508102045 | 53 | 0 | 0.0 | 0.0 | 0.00 | 0.01 | 0.00 | 72 | 1019.7 |
| 20260508101554 | 53 | 0 | 0.0 | 0.0 | 0.00 | 0.01 | 0.00 | 72 | 1019.7 |
| 20260508101047 | 53 | 0 | 0.0 | 0.0 | 0.00 | 0.01 | 0.00 | 72 | 1019.7 |
| 20260508100547 | 53 | 0 | 0.0 | 0.0 | 0.00 | 0.01 | 0.00 | 71 | 1019.8 |
| 20260508100053 | 53 | 0 | 0.0 | 0.0 | 0.00 | 0.01 | 0.00 | 69 | 1019.8 |
| 20260508095546 | 53 | 0 | 0.0 | 0.0 | 0.00 | 0.01 | 0.00 | 72 | 1019.7 |
| 20260508095045 | 54 | 0 | 0.0 | 0.0 | 0.00 | 0.01 | 0.00 | 73 | 1019.7 |
| 20260508094602 | 54 | 0 | 0.0 | 0.0 | 0.00 | 0.01 | 0.00 | 72 | 1019.7 |
| 20260508094044 | 54 | 0 | 0.0 | 0.0 | 0.00 | 0.01 | 0.00 | 73 | 1019.7 |
| 20260508093547 | 54 | 0 | 0.0 | 0.0 | 0.00 | 0.01 | 0.00 | 73 | 1019.6 |
| 20260508093100 | 54 | 0 | 0.0 | 0.0 | 0.00 | 0.01 | 0.00 | 71 | 1019.6 |
| 20260508092545 | 54 | 0 | 0.0 | 2.0 | 0.00 | 0.01 | 0.00 | 71 | 1019.7 |
| 20260508092044 | 54 | 0 | 0.0 | 2.0 | 0.00 | 0.01 | 0.00 | 71 | 1019.7 |
| 20260508091605 | 54 | 0 | 0.0 | 2.0 | 0.00 | 0.01 | 0.00 | 70 | 1019.7 |
| 20260508091045 | 54 | 0 | 0.0 | 2.0 | 0.00 | 0.01 | 0.00 | 69 | 1019.8 |
| 20260508090546 | 54 | 12 | 0.0 | 2.0 | 0.00 | 0.01 | 0.00 | 68 | 1019.8 |
| 20260508090105 | 54 | 0 | 0.0 | 3.0 | 0.00 | 0.01 | 0.00 | 68 | 1019.8 |
| 20260508085545 | 54 | 24 | 0.0 | 3.0 | 0.00 | 0.01 | 0.00 | 67 | 1019.9 |
| 20260508085045 | 54 | 5 | 0.0 | 2.0 | 0.00 | 0.01 | 0.00 | 65 | 1019.9 |
| 20260508084556 | 54 | 35 | 0.0 | 1.0 | 0.00 | 0.01 | 0.00 | 64 | 1020.0 |
| 20260508084044 | 54 | 0 | 0.0 | 2.0 | 0.00 | 0.01 | 0.00 | 64 | 1020.0 |
| 20260508083545 | 54 | 0 | 0.0 | 2.0 | 0.00 | 0.01 | 0.00 | 65 | 1020.1 |
| 20260508083107 | 54 | 0 | 0.0 | 2.0 | 0.00 | 0.01 | 0.00 | 64 | 1020.1 |
| 20260508082548 | 54 | 0 | 0.0 | 2.0 | 0.00 | 0.01 | 0.00 | 63 | 1020.2 |
| 20260508082045 | 54 | 0 | 0.0 | 2.0 | 0.00 | 0.01 | 0.00 | 63 | 1020.2 |
| 20260508081601 | 54 | 0 | 0.0 | 2.0 | 0.00 | 0.01 | 0.00 | 64 | 1020.3 |
| 20260508081045 | 54 | 0 | 0.0 | 3.0 | 0.00 | 0.01 | 0.00 | 65 | 1020.3 |
| 20260508080544 | 54 | 360 | 1.0 | 3.0 | 0.00 | 0.01 | 0.00 | 65 | 1020.3 |
| 20260508080101 | 54 | 360 | 0.0 | 2.0 | 0.00 | 0.01 | 0.00 | 65 | 1020.3 |
| 20260508075545 | 54 | 0 | 0.0 | 2.0 | 0.00 | 0.02 | 0.00 | 65 | 1020.4 |
| 20260508075044 | 54 | 0 | 0.0 | 2.0 | 0.00 | 0.02 | 0.00 | 65 | 1020.5 |
| 20260508074603 | 54 | 0 | 0.0 | 2.0 | 0.00 | 0.02 | 0.00 | 65 | 1020.5 |
| 20260508074044 | 54 | 0 | 0.0 | 2.0 | 0.00 | 0.02 | 0.00 | 65 | 1020.5 |
| 20260508073545 | 54 | 0 | 0.0 | 2.0 | 0.00 | 0.02 | 0.00 | 66 | 1020.5 |
| 20260508073055 | 54 | 15 | 0.0 | 2.0 | 0.00 | 0.02 | 0.00 | 66 | 1020.5 |
| 20260508072544 | 54 | 0 | 0.0 | 2.0 | 0.00 | 0.02 | 0.00 | 65 | 1020.6 |
| 20260508072048 | 53 | 0 | 0.0 | 1.0 | 0.00 | 0.02 | 0.00 | 64 | 1020.6 |
| 20260508071555 | 54 | 0 | 0.0 | 1.0 | 0.00 | 0.02 | 0.00 | 64 | 1020.6 |
| 20260508071048 | 54 | 0 | 0.0 | 2.0 | 0.00 | 0.02 | 0.00 | 64 | 1020.7 |
| 20260508070549 | 54 | 0 | 0.0 | 2.0 | 0.00 | 0.02 | 0.00 | 64 | 1020.6 |
| 20260508070054 | 54 | 0 | 0.0 | 1.0 | 0.00 | 0.02 | 0.00 | 65 | 1020.6 |
| 20260508065545 | 54 | 0 | 0.0 | 3.0 | 0.00 | 0.02 | 0.02 | 62 | 1020.7 |
| 20260508065044 | 54 | 0 | 0.0 | 3.0 | 0.00 | 0.02 | 0.02 | 64 | 1020.7 |
| 20260508064556 | 54 | 0 | 0.0 | 2.0 | 0.00 | 0.02 | 0.02 | 64 | 1020.8 |
| 20260508064050 | 54 | 0 | 0.0 | 2.0 | 0.00 | 0.02 | 0.02 | 66 | 1020.7 |
| 20260508063545 | 54 | 0 | 0.0 | 2.0 | 0.00 | 0.02 | 0.02 | 64 | 1020.8 |
| 20260508063052 | 54 | 0 | 0.0 | 2.0 | 0.00 | 0.02 | 0.02 | 65 | 1020.8 |
| 20260508062544 | 54 | 0 | 0.0 | 2.0 | 0.00 | 0.02 | 0.02 | 63 | 1020.8 |
| 20260508062047 | 55 | 0 | 0.0 | 2.0 | 0.00 | 0.02 | 0.02 | 63 | 1020.8 |
| 20260508061554 | 55 | 0 | 0.0 | 2.0 | 0.00 | 0.02 | 0.02 | 64 | 1020.7 |
| 20260508061044 | 55 | 0 | 0.0 | 2.0 | 0.00 | 0.02 | 0.02 | 65 | 1020.6 |
| 20260508060545 | 54 | 16 | 0.0 | 2.0 | 0.00 | 0.02 | 0.02 | 66 | 1020.6 |
| 20260508060053 | 54 | 0 | 0.0 | 3.0 | 0.00 | 0.02 | 0.02 | 67 | 1020.6 |
| 20260508055547 | 54 | 5 | 0.0 | 3.0 | 0.00 | 0.02 | 0.02 | 66 | 1020.6 |
| 20260508055048 | 54 | 34 | 0.0 | 2.0 | 0.00 | 0.02 | 0.02 | 67 | 1020.6 |
| 20260508054551 | 55 | 23 | 0.0 | 2.0 | 0.00 | 0.02 | 0.02 | 68 | 1020.7 |
| 20260508054047 | 55 | 23 | 0.0 | 2.0 | 0.00 | 0.02 | 0.02 | 69 | 1020.7 |
| 20260508053548 | 55 | 0 | 0.0 | 1.0 | 0.00 | 0.02 | 0.02 | 68 | 1020.7 |
| 20260508053100 | 55 | 23 | 0.0 | 2.0 | 0.00 | 0.02 | 0.02 | 67 | 1020.8 |
| 20260508052547 | 55 | 0 | 0.0 | 2.0 | 0.00 | 0.02 | 0.02 | 67 | 1020.8 |
| 20260508052047 | 55 | 0 | 0.0 | 2.0 | 0.00 | 0.02 | 0.02 | 68 | 1020.8 |
| 20260508051604 | 55 | 23 | 0.0 | 3.0 | 0.00 | 0.02 | 0.02 | 70 | 1020.8 |
| 20260508051045 | 55 | 40 | 0.0 | 3.0 | 0.00 | 0.02 | 0.02 | 70 | 1020.7 |
| 20260508050545 | 55 | 0 | 0.0 | 3.0 | 0.00 | 0.02 | 0.02 | 69 | 1020.6 |
| 20260508050058 | 55 | 29 | 0.0 | 2.0 | 0.00 | 0.02 | 0.02 | 70 | 1020.6 |
| 20260508045544 | 56 | 11 | 0.0 | 1.0 | 0.00 | 0.02 | 0.02 | 72 | 1020.7 |
| 20260508045045 | 56 | 11 | 0.0 | 2.0 | 0.00 | 0.02 | 0.02 | 74 | 1020.7 |
| 20260508044555 | 56 | 0 | 0.0 | 2.0 | 0.00 | 0.02 | 0.02 | 74 | 1020.7 |
| 20260508044046 | 56 | 0 | 0.0 | 2.0 | 0.00 | 0.02 | 0.02 | 74 | 1020.7 |
| 20260508043546 | 56 | 0 | 0.0 | 2.0 | 0.00 | 0.02 | 0.02 | 73 | 1020.7 |
| 20260508043056 | 56 | 11 | 1.0 | 3.0 | 0.00 | 0.02 | 0.02 | 73 | 1020.6 |
| 20260508042545 | 56 | 0 | 0.0 | 3.0 | 0.00 | 0.02 | 0.02 | 73 | 1020.6 |
| 20260508042048 | 56 | 34 | 0.0 | 2.0 | 0.00 | 0.02 | 0.02 | 73 | 1020.6 |
| 20260508041605 | 56 | 22 | 0.0 | 2.0 | 0.00 | 0.02 | 0.02 | 74 | 1020.6 |
| 20260508041046 | 56 | 0 | 0.0 | 2.0 | 0.00 | 0.02 | 0.02 | 74 | 1020.5 |
| 20260508040548 | 56 | 22 | 0.0 | 2.0 | 0.00 | 0.02 | 0.02 | 75 | 1020.5 |
| 20260508040057 | 56 | 0 | 0.0 | 2.0 | 0.00 | 0.02 | 0.02 | 75 | 1020.4 |
| 20260508035548 | 56 | 22 | 0.0 | 2.0 | 0.00 | 0.02 | 0.02 | 75 | 1020.4 |
| 20260508035049 | 56 | 22 | 0.0 | 2.0 | 0.00 | 0.02 | 0.02 | 76 | 1020.4 |
| 20260508034600 | 56 | 22 | 1.0 | 2.0 | 0.00 | 0.02 | 0.02 | 76 | 1020.4 |
| 20260508034048 | 56 | 22 | 0.0 | 2.0 | 0.00 | 0.02 | 0.02 | 76 | 1020.4 |
| 20260508033548 | 56 | 0 | 0.0 | 1.0 | 0.00 | 0.02 | 0.02 | 74 | 1020.4 |
| 20260508033104 | 56 | 0 | 0.0 | 1.0 | 0.00 | 0.02 | 0.02 | 74 | 1020.3 |
| 20260508032641 | 56 | 0 | 0.0 | 1.0 | 0.00 | 0.02 | 0.02 | 75 | 1020.3 |
| 20260508032545 | 56 | 0 | 0.0 | 1.0 | 0.00 | 0.02 | 0.02 | 75 | 1020.3 |
| 20260508032046 | 57 | 0 | 0.0 | 1.0 | 0.00 | 0.02 | 0.02 | 76 | 1020.2 |
| 20260508031556 | 57 | 22 | 0.0 | 1.0 | 0.00 | 0.02 | 0.02 | 76 | 1020.2 |
| 20260508031044 | 57 | 0 | 0.0 | 0.0 | 0.00 | 0.02 | 0.02 | 74 | 1020.1 |
| 20260508030547 | 57 | 0 | 0.0 | 1.0 | 0.00 | 0.02 | 0.02 | 73 | 1020.0 |
| 20260508030052 | 57 | 0 | 0.0 | 1.0 | 0.00 | 0.02 | 0.02 | 73 | 1020.0 |
| 20260508025546 | 58 | 0 | 0.0 | 1.0 | 0.00 | 0.02 | 0.02 | 73 | 1019.9 |
| 20260508025045 | 58 | 0 | 0.0 | 2.0 | 0.00 | 0.02 | 0.02 | 73 | 1019.9 |
| 20260508024557 | 58 | 22 | 0.0 | 2.0 | 0.00 | 0.02 | 0.02 | 74 | 1019.9 |
| 20260508024045 | 59 | 22 | 0.0 | 2.0 | 0.00 | 0.02 | 0.02 | 75 | 1019.8 |
| 20260508023545 | 59 | 17 | 0.0 | 2.0 | 0.00 | 0.02 | 0.02 | 75 | 1019.8 |
| 20260508023056 | 60 | 0 | 0.0 | 2.0 | 0.00 | 0.02 | 0.02 | 73 | 1019.7 |
| 20260508022548 | 60 | 0 | 0.0 | 2.0 | 0.00 | 0.02 | 0.02 | 74 | 1019.7 |
| 20260508022045 | 60 | 64 | 0.0 | 2.0 | 0.00 | 0.02 | 0.02 | 74 | 1019.8 |
| 20260508021606 | 61 | 0 | 0.0 | 2.0 | 0.00 | 0.02 | 0.02 | 75 | 1019.8 |
| 20260508021045 | 61 | 0 | 0.0 | 2.0 | 0.00 | 0.02 | 0.02 | 77 | 1019.7 |
| 20260508020547 | 62 | 0 | 0.0 | 2.0 | 0.00 | 0.02 | 0.02 | 74 | 1019.7 |
| 20260508020053 | 62 | 0 | 0.0 | 1.0 | 0.00 | 0.02 | 0.02 | 74 | 1019.7 |
| 20260508015546 | 63 | 0 | 0.0 | 1.0 | 0.00 | 0.02 | 0.02 | 73 | 1019.7 |
| 20260508015044 | 63 | 0 | 0.0 | 3.0 | 0.00 | 0.02 | 0.02 | 71 | 1019.8 |
| 20260508014552 | 63 | 288 | 0.0 | 3.0 | 0.00 | 0.02 | 0.02 | 71 | 1019.8 |
| 20260508014050 | 64 | 288 | 1.0 | 3.0 | 0.00 | 0.02 | 0.02 | 70 | 1019.8 |
| 20260508013545 | 65 | 0 | 0.0 | 3.0 | 0.00 | 0.02 | 0.02 | 69 | 1019.8 |
| 20260508013051 | 65 | 0 | 0.0 | 6.0 | 0.00 | 0.02 | 0.02 | 67 | 1019.7 |
| 20260508012550 | 65 | 0 | 0.0 | 6.0 | 0.00 | 0.02 | 0.02 | 66 | 1019.8 |
| 20260508012045 | 66 | 0 | 2.0 | 6.0 | 0.00 | 0.02 | 0.02 | 64 | 1019.8 |
| 20260508011606 | 66 | 202 | 0.0 | 4.0 | 0.00 | 0.02 | 0.02 | 66 | 1019.8 |
| 20260508011045 | 67 | 178 | 0.0 | 5.0 | 0.00 | 0.02 | 0.02 | 66 | 1019.9 |
| 20260508010545 | 67 | 323 | 0.0 | 5.0 | 0.00 | 0.02 | 0.02 | 65 | 1019.9 |
| 20260508010050 | 68 | 296 | 1.0 | 5.0 | 0.00 | 0.02 | 0.02 | 64 | 1019.9 |
| 20260508005548 | 68 | 0 | 0.0 | 7.0 | 0.00 | 0.02 | 0.02 | 64 | 1019.8 |
| 20260508005044 | 68 | 188 | 1.0 | 8.0 | 0.00 | 0.02 | 0.02 | 63 | 1019.8 |
| 20260508004558 | 69 | 178 | 2.0 | 8.0 | 0.00 | 0.02 | 0.02 | 61 | 1019.8 |
| 20260508004045 | 69 | 200 | 2.0 | 8.0 | 0.00 | 0.02 | 0.02 | 61 | 1019.7 |
| 20260508003544 | 69 | 239 | 1.0 | 10.0 | 0.00 | 0.02 | 0.02 | 61 | 1019.7 |
| 20260508003053 | 70 | 243 | 2.0 | 10.0 | 0.00 | 0.02 | 0.02 | 60 | 1019.7 |